"Pseudo-MPEC" for P10HLL0

Created 2018 Jun 18 9:18:17 UT using Find_Orb

Click here for an explanation of pseudo-MPECs

 
 Astrometry: 
     P10HLL0  C2018 06 12-:Astrometryfx=lsHnhD#7kT%?M4tWimHK0XAMe[9dx`7!.%!R\F51
     P10HLL0  C2018 06 128Cjq,kOO^w!^-Y%ZD;MbmgynvXJN:L+4h#t3RIr)J06)jJ(_wj,eF51
     P10HLL0  C2018 06 12jU;H%i=AoU8YOKeSwn#.*aR.ik+3wJWRe1/wS$yb2lBwE?k'OcY]F51
     P10HLL0  C2018 06 12,$B@VGQ.2W@u.MTa5redacted;Js'lp2;)9jFM'-QJMaqXp]6j3xF51
     P10HLL0 ^C2018 06 14.53195320 05 34.962-35 52 50.70         19.66GVNEOCP568
     P10HLL0 ^C2018 06 14.53289920 05 34.990-35 52 50.76         19.66GVNEOCP568
     P10HLL0 ^C2018 06 14.53384520 05 35.017-35 52 50.76         19.64GVNEOCP568
     P10HLL0  C2018 06 14=g`,kY4^*npEwcjD6KQBOX)F6S^wK%:l?!]xiA(]kN[/rYyCdAsv474
     P10HLL0  C2018 06 14%sf21m0\L$NkYfCHaL,STgbaId]v:p([MlyKFD*fBSNn_[w\Z8+x474
     P10HLL0  C2018 06 14u\8kRN3l@+Ek,DPrf)4B[6HXr(qWZF9rlE6@3\:\,$\Ql?Qa3pcE474
     P10HLL0 |C2018 06 18BEy%=mw/8gOKJCD,)f?SX^+8Er..=PSZsee)2Qv/`iwi:!28a;M[807
     P10HLL0 |C2018 06 18n+tSCsK+(i[5#dHT;1n*.]xcI7J?,w!\O.YHYd*y@YB3Y-[=p;YB807
     P10HLL0 |C2018 06 18,^a85mrk!+:4JD7#pA:^TH?q8gwZs5AfK^YwOZ\in,h_0,V+Gn`o807
     P10HLL0 |C2018 06 1831gKx+LT'8%eqn+^8SE9/fI:3=\PfIVdh;6vB(!ayW0^oH8NEOCP807

Station data:
(474) Mount John Observatory, Lake Tekapo  (S43.987388 E170.464960)  New
   Zealand.  Observers A. C. Gilmore, P. M. Kilmartin. Measurer P. M.
   Kilmartin. 1.0-m f/7.7 reflector + CCD.
(568) Mauna Kea  (N19.826116 W155.472200)  US/Hawaii.
(807) Cerro Tololo Observatory, La Serena  (S30.169136 W70.805900)  Chile.
   1.5-m Ritchey-Chrétien.
(F51) Pan-STARRS 1, Haleakala  (N20.707235 W156.255910)  US/Hawaii.
   Observers N. Primak, A. Schultz, S. Watters, J. Thiel, T. Goggia. Measurer
   PS1 Science Consortium. 1.8-m Ritchey-Chrétien + CCD.

Orbital elements:  P10HLL0
   Perihelion 2018 Jul 10.060183 +/- 5.62 TT =  1:26:39 (JD 2458309.560183)
Epoch 2018 Jun 18.0 TT = JDT 2458287.5   Earth MOID: 0.5560   AutoNEOCP
M 354.78735 +/- 1.5                 (J2000 ecliptic)
n   0.23629201 +/- 0.0149           Peri.  309.51826 +/- 4.8
a   2.59121441 +/- 0.109            Node   340.89877 +/- 1.5
e   0.3974900 +/- 0.0198            Incl.    6.68209 +/- 0.013
P   4.17                   H 19.0   G  0.15   U  9.9  
q 1.56123236 +/- 0.0152    Q 3.62119646 +/- 0.215
From 14 observations 2018 June 12-18; mean residual 0".06
Residuals in arcseconds: 
180612 F51  .02+  .04-    180614 568  .03+  .03-    180618 807  .10+  .09-    
180612 F51  .07-  .10-    180614 568  .03+  .01-    180618 807  .00   .03-    
180612 F51  .04+  .02-    180614 474  .07+  .06+    180618 807  .07-  .01+    
180612 F51  .01+  .06+    180614 474  .15-  .02+    180618 807  .03-  .04+    
180614 568  .02+  .00     180614 474  .01-  .08+    

Ephemerides (geocentric):
Date (UTC) HH   RA              Dec         delta   r     elong  mag " sig PA
---- -- -- --  -------------   -----------  ------ ------ -----  --- ---- ---
2018 06 18 09  20 07 29.997   -35 53 09.76  .61945 1.5725 147.1 19.9  .09 153
2018 06 18 10  20 07 31.026   -35 53 09.43  .61927 1.5725 147.1 19.9  .10 152
2018 06 18 11  20 07 32.051   -35 53 09.07  .61909 1.5724 147.2 19.9  .11 152
2018 06 18 12  20 07 33.071   -35 53 08.70  .61892 1.5724 147.2 19.9  .12 152
2018 06 18 13  20 07 34.087   -35 53 08.32  .61874 1.5723 147.2 19.9  .13 151
2018 06 18 14  20 07 35.097   -35 53 07.92  .61857 1.5723 147.2 19.9  .14 151
2018 06 18 15  20 07 36.103   -35 53 07.51  .61839 1.5722 147.3 19.9  .15 151
2018 06 18 16  20 07 37.105   -35 53 07.08  .61822 1.5722 147.3 19.9  .16 150
2018 06 18 17  20 07 38.102   -35 53 06.63  .61804 1.5722 147.3 19.9  .17 150
2018 06 18 18  20 07 39.094   -35 53 06.17  .61787 1.5721 147.4 19.9  .18 150
2018 06 18 19  20 07 40.081   -35 53 05.69  .61769 1.5721 147.4 19.9  .19 150
2018 06 18 20  20 07 41.064   -35 53 05.20  .61752 1.5720 147.4 19.9  .20 149
2018 06 18 21  20 07 42.043   -35 53 04.70  .61735 1.5720 147.5 19.9  .21 149
2018 06 18 22  20 07 43.016   -35 53 04.17  .61717 1.5720 147.5 19.9  .22 149
2018 06 18 23  20 07 43.985   -35 53 03.63  .61700 1.5719 147.5 19.9  .24 149
2018 06 19 00  20 07 44.949   -35 53 03.08  .61683 1.5719 147.6 19.9  .25 149
2018 06 19 01  20 07 45.909   -35 53 02.51  .61665 1.5718 147.6 19.9  .26 148
2018 06 19 02  20 07 46.864   -35 53 01.92  .61648 1.5718 147.6 19.9  .27 148
2018 06 19 03  20 07 47.815   -35 53 01.32  .61631 1.5717 147.7 19.9  .29 148
2018 06 19 04  20 07 48.760   -35 53 00.71  .61614 1.5717 147.7 19.9  .30 148
2018 06 19 05  20 07 49.701   -35 53 00.07  .61596 1.5717 147.7 19.9  .31 148
2018 06 19 06  20 07 50.638   -35 52 59.42  .61579 1.5716 147.8 19.9  .33 147
2018 06 19 07  20 07 51.570   -35 52 58.76  .61562 1.5716 147.8 19.9  .34 147
2018 06 19 08  20 07 52.497   -35 52 58.08  .61545 1.5715 147.8 19.9  .36 147
2018 06 19 09  20 07 53.420   -35 52 57.38  .61528 1.5715 147.8 19.9  .37 147
2018 06 19 10  20 07 54.338   -35 52 56.67  .61511 1.5715 147.9 19.9  .39 147
2018 06 19 11  20 07 55.251   -35 52 55.94  .61494 1.5714 147.9 19.9  .40 147
2018 06 19 12  20 07 56.160   -35 52 55.20  .61477 1.5714 147.9 19.9  .42 146
2018 06 19 13  20 07 57.064   -35 52 54.44  .61460 1.5713 148.0 19.9  .43 146
2018 06 19 14  20 07 57.964   -35 52 53.66  .61443 1.5713 148.0 19.9  .45 146
2018 06 19 15  20 07 58.859   -35 52 52.87  .61426 1.5713 148.0 19.9  .47 146
2018 06 19 16  20 07 59.749   -35 52 52.06  .61409 1.5712 148.1 19.9  .48 146
2018 06 19 17  20 08 00.635   -35 52 51.23  .61392 1.5712 148.1 19.9  .50 146
2018 06 19 18  20 08 01.516   -35 52 50.39  .61375 1.5711 148.1 19.9  .52 145
2018 06 19 19  20 08 02.392   -35 52 49.53  .61358 1.5711 148.2 19.9  .54 145
2018 06 19 20  20 08 03.264   -35 52 48.66  .61341 1.5710 148.2 19.9  .56 145
2018 06 19 21  20 08 04.131   -35 52 47.77  .61324 1.5710 148.2 19.9  .57 145
2018 06 19 22  20 08 04.994   -35 52 46.86  .61308 1.5710 148.3 19.9  .59 145
2018 06 19 23  20 08 05.852   -35 52 45.94  .61291 1.5709 148.3 19.9  .61 145
2018 06 20 00  20 08 06.705   -35 52 45.00  .61274 1.5709 148.3 19.9  .63 145
2018 06 20 01  20 08 07.554   -35 52 44.05  .61257 1.5708 148.4 19.9  .65 144
2018 06 20 02  20 08 08.399   -35 52 43.07  .61241 1.5708 148.4 19.9  .67 144
2018 06 20 03  20 08 09.238   -35 52 42.09  .61224 1.5708 148.4 19.9  .69 144
2018 06 20 04  20 08 10.073   -35 52 41.08  .61207 1.5707 148.4 19.9  .72 144
2018 06 20 05  20 08 10.904   -35 52 40.06  .61191 1.5707 148.5 19.9  .74 144
2018 06 20 06  20 08 11.730   -35 52 39.02  .61174 1.5707 148.5 19.9  .76 144
2018 06 20 07  20 08 12.551   -35 52 37.97  .61157 1.5706 148.5 19.9  .78 144
2018 06 20 08  20 08 13.367   -35 52 36.90  .61141 1.5706 148.6 19.9  .80 143